Flag for Portugal Weather past 2 weeks in Ponta Delgada (Azores), Portugal

Now
73 °F

Passing clouds.


Feels Like: 75 °F
Forecast: 71 / 76 °F
Wind: 13 mph from West

Location: Ponta Delgada / Nordela Acores

Current Time: Jul 25, 2014 at 6:57:04 PM

Latest Report: Jul 25, 2014 at 6:00 PM


Visibility: N/A

Pressure: 29.92 "Hg

Humidity: 74%

Dew point: 64 °F

Location of Ponta Delgada (Azores)Location

Historic Weather in Ponta Delgada (Azores) — Graph

°F

Ponta Delgada (Azores) temperature yesterday

Maximum temperature yesterday: 75 °F (at 5:00 PM)
Minimum temperature yesterday: 68 °F (at 12:00 AM)
Average temperature yesterday: 71 °F

Past Weeks' High & Low Weather Summary

 TemperatureHumidityPressure
High79 °F (Jul 20, 4:30 PM)100% (Jul 17, 3:30 AM)30.33 "Hg (Jul 17, 3:30 AM)
Low61 °F (Jul 16, 1:00 AM)50% (Jul 11, 1:00 PM)29.92 "Hg (Jul 25, 5:00 AM)
Average69 °F78%30.17 "Hg
* Reported Jul 10 5:00 PM — Jul 25 5:00 PM, Ponta Delgada (Azores), Weather by CustomWeather, © 2014

Note: Actual official high and low records may vary slightly from our data, if they occured in-between our weather recording intervals... More about our weather records

Advertising

Ponta Delgada (Azores) weather history for previous 24 hours

 ConditionsComfort  
Time TempWeatherWind HumidityBarometerVisibility
5:00 PM
Jul 25
73 °FPassing clouds.15 mph69%29.92 "HgN/A
4:30 PM73 °FScattered clouds.14 mph74%29.92 "HgN/A
4:00 PM73 °FPassing clouds.13 mph69%29.92 "HgN/A
3:30 PM73 °FPassing clouds.14 mph74%29.92 "HgN/A
3:00 PM73 °FPassing clouds.14 mph74%29.92 "HgN/A
2:30 PM73 °FPassing clouds.16 mph74%29.92 "HgN/A
2:00 PM73 °FPassing clouds.13 mph74%29.92 "HgN/A
1:30 PM73 °FScattered clouds.16 mph78%29.95 "HgN/A
1:00 PM73 °FPassing clouds.15 mph74%29.95 "HgN/A
12:30 PM73 °FPassing clouds.15 mph69%29.95 "HgN/A
12:00 PM73 °FPassing clouds.15 mph78%29.92 "HgN/A
11:30 AM72 °FPassing clouds.14 mph78%29.92 "HgN/A
11:00 AM72 °FPassing clouds.14 mph78%29.92 "HgN/A
10:30 AM72 °FPassing clouds.13 mph78%29.92 "HgN/A
10:00 AM70 °FPartly sunny.13 mph83%29.95 "HgN/A
9:30 AM70 °FBroken clouds.14 mph83%29.92 "HgN/A
9:00 AM70 °FScattered showers. Broken clouds.8 mph88%29.95 "HgN/A
8:30 AM68 °FDrizzle. Fog.14 mph88%29.95 "Hg2 mi
8:00 AM70 °FBroken clouds.8 mph88%29.95 "HgN/A
7:30 AM68 °FPassing clouds.9 mph94%29.92 "HgN/A
7:00 AM68 °FPassing clouds.15 mph94%29.92 "HgN/A
6:30 AM70 °FDrizzle. Fog.17 mph94%29.95 "Hg2 mi
6:00 AM68 °FPartly cloudy.14 mph100%29.92 "Hg4 mi
5:30 AM72 °FPartly cloudy.14 mph94%29.92 "Hg4 mi
5:00 AM72 °FSprinkles. Partly cloudy.10 mph94%29.92 "Hg4 mi
4:30 AM72 °FPartly cloudy.12 mph94%29.95 "Hg4 mi
4:00 AM72 °FPartly cloudy.12 mph94%29.95 "Hg4 mi
3:00 AM72 °FPartly cloudy.10 mph94%29.98 "Hg4 mi
2:30 AM72 °FPartly cloudy.10 mph94%29.98 "Hg4 mi
2:00 AM72 °FFog.10 mph94%30.01 "Hg2 mi
1:30 AM72 °FFog.9 mph94%30.01 "Hg2 mi
1:00 AM72 °FPartly cloudy.10 mph94%30.01 "Hg4 mi
12:00 AM72 °FPartly cloudy.9 mph94%30.04 "Hg4 mi
11:30 PM
Jul 24
72 °FPartly cloudy.7 mph94%30.04 "Hg4 mi
11:00 PM72 °FPassing clouds.9 mph94%30.04 "HgN/A
10:30 PM72 °FPassing clouds.8 mph94%30.04 "Hg4 mi
10:00 PM72 °FPartly cloudy.8 mph94%30.04 "Hg4 mi
9:30 PM72 °FPartly sunny.8 mph94%30.04 "Hg5 mi
9:00 PM72 °FPartly sunny.8 mph94%30.07 "HgN/A
8:30 PM72 °FPartly sunny.9 mph94%30.04 "HgN/A
8:00 PM72 °FPartly sunny.9 mph94%30.04 "HgN/A
7:30 PM72 °FBroken clouds.9 mph94%30.07 "Hg6 mi
7:00 PM73 °FPartly sunny.9 mph89%30.07 "Hg6 mi
6:30 PM73 °FBroken clouds.8 mph89%30.07 "Hg6 mi
6:00 PM73 °FBroken clouds.8 mph89%30.07 "HgN/A
Weather by CustomWeather, © 2014

See weather overviewHow to use our weather pages